Time,TemperatureF,DewpointF,PressureIn,WindDirection,WindDirectionDegrees,WindSpeedMPH,WindSpeedGustMPH,Humidity,HourlyPrecipIn,Conditions,Clouds,dailyrainin,SoftwareType,DateUTC
2015-09-02 00:03:00,76.2,75.0,30.08,West,261,0.0,2.0,96,0.00,,,0.00,weatherlink.com 1.10,2015-09-02 04:03:00,
2015-09-02 00:18:00,76.1,75.0,30.09,WNW,284,1.0,3.0,96,0.00,,,0.00,weatherlink.com 1.10,2015-09-02 04:18:00,
2015-09-02 00:33:00,76.1,75.0,30.09,WNW,283,2.0,3.0,96,0.00,,,0.00,weatherlink.com 1.10,2015-09-02 04:33:00,
2015-09-02 00:48:00,75.9,75.0,30.08,WNW,297,1.0,2.0,96,0.00,,,0.00,weatherlink.com 1.10,2015-09-02 04:48:00,
2015-09-02 01:03:00,75.9,75.0,30.08,WSW,257,1.0,3.0,96,0.00,,,0.00,weatherlink.com 1.10,2015-09-02 05:03:00,
2015-09-02 01:18:00,75.8,75.0,30.08,West,279,2.0,4.0,96,0.00,,,0.00,weatherlink.com 1.10,2015-09-02 05:18:00,
2015-09-02 01:33:00,75.9,75.0,30.08,WNW,284,0.0,3.0,96,0.00,,,0.00,weatherlink.com 1.10,2015-09-02 05:33:00,
2015-09-02 01:48:00,75.7,75.0,30.08,NW,326,1.0,3.0,96,0.00,,,0.00,weatherlink.com 1.10,2015-09-02 05:48:00,
2015-09-02 02:03:00,75.6,74.0,30.08,WNW,301,3.0,4.0,96,0.00,,,0.00,weatherlink.com 1.10,2015-09-02 06:03:00,
2015-09-02 02:18:00,75.5,74.0,30.08,NW,311,1.0,3.0,96,0.00,,,0.00,weatherlink.com 1.10,2015-09-02 06:18:00,
2015-09-02 02:33:00,75.3,74.0,30.07,West,279,0.0,2.0,96,0.00,,,0.00,weatherlink.com 1.10,2015-09-02 06:33:00,
2015-09-02 02:48:00,75.2,74.0,30.07,WNW,283,0.0,1.0,96,0.00,,,0.00,weatherlink.com 1.10,2015-09-02 06:48:00,
2015-09-02 03:03:00,75.1,74.0,30.07,WNW,297,0.0,1.0,97,0.00,,,0.00,weatherlink.com 1.10,2015-09-02 07:03:00,
2015-09-02 03:18:00,75.0,74.0,30.07,WNW,294,0.0,2.0,97,0.00,,,0.00,weatherlink.com 1.10,2015-09-02 07:18:00,
2015-09-02 03:33:00,74.7,74.0,30.06,WNW,294,0.0,1.0,97,0.00,,,0.00,weatherlink.com 1.10,2015-09-02 07:33:00,
2015-09-02 03:48:00,74.6,74.0,30.06,WNW,291,0.0,1.0,97,0.00,,,0.00,weatherlink.com 1.10,2015-09-02 07:48:00,
2015-09-02 04:03:00,74.3,73.0,30.06,West,274,1.0,1.0,97,0.00,,,0.00,weatherlink.com 1.10,2015-09-02 08:03:00,
2015-09-02 04:18:00,74.2,73.0,30.06,West,273,0.0,1.0,97,0.00,,,0.00,weatherlink.com 1.10,2015-09-02 08:18:00,
2015-09-02 04:33:00,74.1,73.0,30.06,West,277,2.0,2.0,97,0.00,,,0.00,weatherlink.com 1.10,2015-09-02 08:33:00,
2015-09-02 04:48:00,74.0,73.0,30.06,West,264,1.0,1.0,97,0.00,,,0.00,weatherlink.com 1.10,2015-09-02 08:48:00,
2015-09-02 05:03:00,73.9,73.0,30.06,West,280,1.0,2.0,98,0.00,,,0.00,weatherlink.com 1.10,2015-09-02 09:03:00,
2015-09-02 05:18:00,73.8,73.0,30.06,West,278,1.0,2.0,98,0.00,,,0.00,weatherlink.com 1.10,2015-09-02 09:18:00,
2015-09-02 05:33:00,73.7,73.0,30.06,WNW,290,2.0,3.0,98,0.00,,,0.00,weatherlink.com 1.10,2015-09-02 09:33:00,
2015-09-02 05:49:00,73.6,73.0,30.06,NNW,327,1.0,3.0,98,0.00,,,0.00,weatherlink.com 1.10,2015-09-02 09:49:00,
2015-09-02 06:03:00,73.5,73.0,30.06,WNW,286,1.0,3.0,98,0.00,,,0.00,weatherlink.com 1.10,2015-09-02 10:03:00,
2015-09-02 06:18:00,73.4,73.0,30.06,WNW,295,4.0,4.0,98,0.00,,,0.00,weatherlink.com 1.10,2015-09-02 10:18:00,
2015-09-02 06:33:00,73.3,73.0,30.06,WNW,290,1.0,4.0,98,0.00,,,0.00,weatherlink.com 1.10,2015-09-02 10:33:00,
2015-09-02 06:48:00,73.2,73.0,30.07,West,271,1.0,4.0,98,0.00,,,0.00,weatherlink.com 1.10,2015-09-02 10:48:00,